This is the latest recevied weather packets stored in our database for station/object N3FYI-5. If no packets are shown the sender has not sent any weather packets the latest 10 day(s).
| Time | Temp. | Humidity | Pressure | Rain* | Wind** | Luminosity | Snow |
|---|---|---|---|---|---|---|---|
| 1777570458 | 6.11° C | 85% | 1018.9 hPa | 0 mm | - | - | - |
| 1777568058 | 7.22° C | 83% | 1018.7 hPa | 0 mm | - | - | - |
| 1777567098 | 7.78° C | 82% | 1018.6 hPa | 0 mm | - | - | - |
| 1777565658 | 7.78° C | 81% | 1018.7 hPa | 0 mm | - | - | - |
| 1777565178 | 7.78° C | 81% | 1018.6 hPa | 0 mm | - | - | - |
| 1777563258 | 7.22° C | 83% | 1018.6 hPa | 0 mm | - | - | - |
| 1777562778 | 7.22° C | 82% | 1018.5 hPa | 0 mm | - | - | - |
| 1777562298 | 7.22° C | 84% | 1018.4 hPa | 0 mm | - | - | - |
| 1777561820 | 6.67° C | 84% | 1018.4 hPa | 0 mm | - | - | - |
| 1777561338 | 7.22° C | 83% | 1018.4 hPa | 0 mm | - | - | - |
| 1777560378 | 7.22° C | 83% | 1018.2 hPa | 0 mm | - | - | - |
| 1777559418 | 7.22° C | 85% | 1018.1 hPa | 0 mm | - | - | - |
| 1777558938 | 7.22° C | 84% | 1018.1 hPa | 0 mm | - | - | - |
| 1777558458 | 7.22° C | 86% | 1018 hPa | 0 mm | - | - | - |
| 1777557019 | 6.67° C | 86% | 1018.1 hPa | 0 mm | - | - | - |
| 1777556057 | 6.11° C | 87% | 1018.3 hPa | 0 mm | - | - | - |
| 1777554619 | 5.56° C | 84% | 1018.2 hPa | 0 mm | - | - | - |
| 1777553657 | 5.56° C | 78% | 1018.3 hPa | 0 mm | - | - | - |
| 1777552219 | 5° C | 69% | 1018.2 hPa | 0 mm | - | - | - |
| 1777551738 | 5° C | 63% | 1018.2 hPa | 0 mm | - | - | - |
| 1777551258 | 4.44° C | 61% | 1018.1 hPa | 0 mm | - | - | - |
| 1777550778 | 4.44° C | 61% | 1018.1 hPa | 0 mm | - | - | - |
| 1777550094 | 3.89° C | 62% | 1018.2 hPa | 0 mm | - | - | - |
| 1777548657 | 3.89° C | 60% | 1018.3 hPa | 0 mm | - | - | - |
| 1777548174 | 3.89° C | 60% | 1018.2 hPa | 0 mm | - | - | - |
* Rain latest hour (hover to see other rain measurements)
** Current wind speed in m/s (hover to see current wind gust speed)